| time (UTC) | temp C | wind direction | speed KPH | gust KPH | rain 1hr cm | rain 24hr cm | rain mn cm | humidity % | barometer mb |
| 20260505121528 | 8 | 165 | 0.0 | 8.0 | 0.05 | 1.63 | 0.61 | 92 | 1007.9 |
| 20260505120015 | 8 | 71 | 0.0 | 3.2 | 0.05 | 1.63 | 0.61 | 91 | 1007.8 |
| 20260505114515 | 9 | 122 | 1.6 | 4.8 | 0.03 | 1.60 | 0.61 | 93 | 1007.7 |
| 20260505113014 | 9 | 123 | 0.0 | 6.4 | 0.00 | 1.57 | 0.58 | 90 | 1007.6 |
| 20260505111513 | 10 | 74 | 1.6 | 9.7 | 0.00 | 1.57 | 0.58 | 92 | 1007.6 |
| 20260505101510 | 10 | 71 | 1.6 | 12.9 | 0.00 | 1.65 | 0.58 | 89 | 1007.5 |
| 20260505100017 | 9 | 21 | 4.8 | 8.0 | 0.05 | 1.65 | 0.58 | 85 | 1007.5 |
| 20260505094513 | 9 | 59 | 3.2 | 8.0 | 0.05 | 1.75 | 0.58 | 86 | 1007.3 |
| 20260505093022 | 9 | 70 | 1.6 | 8.0 | 0.05 | 1.75 | 0.58 | 92 | 1007.2 |
| 20260505091515 | 9 | 72 | 1.6 | 3.2 | 0.05 | 1.75 | 0.58 | 93 | 1007.2 |
| 20260505090008 | 8 | 63 | 0.0 | 8.0 | 0.00 | 1.70 | 0.53 | 89 | 1007.2 |
| 20260505084508 | 10 | 65 | 0.0 | 6.4 | 0.00 | 1.70 | 0.53 | 85 | 1007.0 |
| 20260505083007 | 9 | 34 | 0.0 | 8.0 | 0.00 | 1.70 | 0.53 | 77 | 1006.9 |
| 20260505081507 | 9 | 13 | 1.6 | 9.7 | 0.00 | 1.70 | 0.53 | 76 | 1006.9 |
| 20260505080008 | 9 | 67 | 1.6 | 8.0 | 0.00 | 1.70 | 0.53 | 79 | 1006.8 |
| 20260505074507 | 10 | 59 | 0.0 | 8.0 | 0.00 | 1.70 | 0.53 | 85 | 1007.0 |
| 20260505073001 | 8 | 302 | 0.0 | 8.0 | 0.00 | 1.70 | 0.53 | 87 | 1007.1 |
| 20260505071559 | 8 | 52 | 0.0 | 9.7 | 0.00 | 1.70 | 0.53 | 92 | 1007.2 |
| 20260505070059 | 7 | 99 | 0.0 | 1.6 | 0.00 | 1.70 | 0.53 | 86 | 1007.2 |
| 20260505064607 | 7 | 100 | 0.0 | 8.0 | 0.00 | 1.70 | 0.53 | 88 | 1007.2 |
| 20260505063053 | 7 | 74 | 0.0 | 3.2 | 0.00 | 1.70 | 0.53 | 95 | 1007.3 |
| 20260505061550 | 6 | 288 | 0.0 | 6.4 | 0.00 | 1.70 | 0.53 | 94 | 1007.3 |
| 20260505060050 | 6 | 51 | 0.0 | 8.0 | 0.00 | 1.70 | 0.53 | 95 | 1007.6 |
| 20260505054615 | 5 | 242 | 3.2 | 8.0 | 0.00 | 1.70 | 0.53 | 95 | 1007.7 |
| 20260505053049 | 5 | 238 | 0.0 | 3.2 | 0.00 | 1.70 | 0.53 | 95 | 1007.5 |
| 20260505051545 | 5 | 234 | 0.0 | 6.4 | 0.05 | 1.70 | 0.53 | 95 | 1007.8 |
| 20260505041548 | 5 | 333 | 0.0 | 3.2 | 0.15 | 1.65 | 0.48 | 94 | 1008.4 |
| 20260505040042 | 5 | 333 | 0.0 | 3.2 | 0.18 | 1.60 | 0.43 | 93 | 1008.3 |
| 20260505034537 | 5 | 266 | 0.0 | 1.6 | 0.20 | 1.55 | 0.41 | 93 | 1008.4 |
| 20260505033034 | 5 | 266 | 0.0 | 6.4 | 0.18 | 1.55 | 0.38 | 93 | 1008.6 |
| 20260505031538 | 5 | 60 | 1.6 | 3.2 | 0.15 | 1.45 | 0.33 | 92 | 1008.7 |
| 20260505030036 | 5 | 344 | 0.0 | 11.3 | 0.13 | 1.42 | 0.25 | 90 | 1008.6 |
| 20260505024530 | 5 | 43 | 6.4 | 14.5 | 0.08 | 1.37 | 0.20 | 90 | 1008.7 |
| 20260505023030 | 5 | 342 | 4.8 | 14.5 | 0.05 | 1.35 | 0.18 | 90 | 1008.4 |
| 20260505021528 | 5 | 350 | 3.2 | 9.7 | 0.05 | 1.32 | 0.15 | 92 | 1008.5 |
| 20260505020033 | 5 | 300 | 0.0 | 8.0 | 0.03 | 1.30 | 0.15 | 91 | 1008.4 |
| 20260505014526 | 6 | 50 | 1.6 | 6.4 | 0.00 | 1.27 | 0.13 | 90 | 1008.6 |
| 20260505013024 | 6 | 49 | 1.6 | 9.7 | 0.00 | 1.27 | 0.13 | 87 | 1008.6 |
| 20260505011524 | 6 | 51 | 3.2 | 9.7 | 0.00 | 1.27 | 0.13 | 86 | 1008.6 |
| 20260505010024 | 6 | 351 | 1.6 | 8.0 | 0.00 | 1.27 | 0.13 | 87 | 1008.5 |
| 20260505004523 | 6 | 301 | 3.2 | 14.5 | 0.00 | 1.27 | 0.13 | 86 | 1008.9 |
| 20260505003027 | 6 | 295 | 4.8 | 12.9 | 0.00 | 1.27 | 0.13 | 85 | 1009.1 |
| 20260505001520 | 6 | 349 | 3.2 | 14.5 | 0.00 | 1.27 | 0.13 | 86 | 1009.4 |
| 20260505000020 | 6 | 30 | 9.7 | 16.1 | 0.00 | 1.27 | 0.13 | 84 | 1009.6 |
| 20260504234518 | 6 | 14 | 8.0 | 14.5 | 0.03 | 1.27 | 0.13 | 86 | 1009.7 |
| 20260504233017 | 6 | 42 | 8.0 | 19.3 | 0.08 | 1.27 | 0.13 | 85 | 1009.7 |
| 20260504231516 | 6 | 38 | 6.4 | 14.5 | 0.13 | 1.27 | 0.13 | 88 | 1009.8 |
| 20260504230014 | 6 | 320 | 3.2 | 19.3 | 0.13 | 1.27 | 0.13 | 89 | 1010.2 |
| 20260504224519 | 6 | 59 | 8.0 | 17.7 | 0.08 | 1.24 | 0.08 | 88 | 1010.4 |
| 20260504223009 | 6 | 72 | 6.4 | 20.9 | 0.03 | 1.17 | 0.03 | 87 | 1010.6 |
| 20260504221506 | 6 | 19 | 3.2 | 19.3 | 0.00 | 1.17 | 0.00 | 86 | 1010.6 |
| 20260504220004 | 6 | 34 | 14.5 | 33.8 | 0.00 | 1.17 | 0.00 | 84 | 1010.6 |
| 20260504214502 | 6 | 14 | 11.3 | 20.9 | 0.03 | 1.17 | 1.17 | 88 | 1010.6 |
| 20260504213104 | 6 | 340 | 6.4 | 24.1 | 0.03 | 1.17 | 1.17 | 87 | 1010.8 |
| 20260504211601 | 6 | 31 | 11.3 | 16.1 | 0.05 | 1.17 | 1.17 | 87 | 1011.1 |
| 20260504204556 | 6 | 52 | 8.0 | 14.5 | 0.05 | 1.14 | 1.14 | 87 | 1011.1 |
| 20260504203054 | 6 | 331 | 6.4 | 11.3 | 0.10 | 1.14 | 1.14 | 90 | 1011.5 |
| 20260504201552 | 6 | 319 | 8.0 | 14.5 | 0.13 | 1.12 | 1.12 | 90 | 1011.5 |
| 20260504200100 | 6 | 355 | 6.4 | 12.9 | 0.10 | 1.09 | 1.09 | 92 | 1011.4 |
| 20260504194549 | 6 | 344 | 1.6 | 9.7 | 0.05 | 1.07 | 1.07 | 92 | 1011.2 |
| 20260504193049 | 6 | 59 | 1.6 | 9.7 | 0.05 | 1.04 | 1.04 | 90 | 1011.1 |
| 20260504191601 | 6 | 254 | 0.0 | 6.4 | 0.00 | 0.99 | 0.99 | 90 | 1010.9 |
| 20260504190046 | 6 | 344 | 4.8 | 14.5 | 0.00 | 0.99 | 0.99 | 88 | 1010.8 |
| 20260504184546 | 6 | 340 | 6.4 | 11.3 | 0.00 | 0.99 | 0.99 | 87 | 1010.8 |
| 20260504183045 | 6 | 311 | 6.4 | 12.9 | 0.00 | 0.99 | 0.99 | 90 | 1010.6 |
| 20260504181543 | 6 | 336 | 3.2 | 11.3 | 0.00 | 0.99 | 0.99 | 89 | 1010.8 |
| 20260504180043 | 6 | 345 | 4.8 | 20.9 | 0.03 | 0.99 | 0.99 | 88 | 1011.0 |
| 20260504174541 | 6 | 333 | 6.4 | 11.3 | 0.08 | 0.99 | 0.99 | 89 | 1011.2 |
| 20260504173039 | 6 | 336 | 4.8 | 16.1 | 0.20 | 0.99 | 0.99 | 89 | 1011.3 |
| 20260504171537 | 6 | 336 | 6.4 | 19.3 | 0.30 | 0.99 | 0.99 | 87 | 1011.5 |